Everett-Stewart Regional Airp, TN

9:47 AM CDT on August 18, 2017 (GMT -0500)
Everett-Stewart

Weather History for KUCY - February, 2014

Change the Weather History Date:

Tuesday, February 4, 2014

  Actual Average (KDYR) Record (KDYR)
Temperature  
Mean Temperature 26 °F -  
Max Temperature 30 °F 46 °F 73 °F (2008)
Min Temperature 23 °F 32 °F 17 °F (2009)
Degree Days  
Heating Degree Days 38    
Moisture  
Dew Point 27 °F    
Average Humidity 97    
Maximum Humidity 100    
Minimum Humidity 93    
Precipitation  
Precipitation 0.00 in - - ()
Sea Level Pressure  
Sea Level Pressure 30.03 in    
Wind  
Wind Speed 1 mph (NE)    
Max Wind Speed 7 mph    
Max Gust Speed 84 mph    
Visibility 4 miles    
Events      
Averages and records for this station are not official NWS values.
T = Trace of Precipitation, MM = Missing Value Source: NWS Daily Summary

Daily Weather History Graph

Daily Weather History Graph

Search for Another Location

Airport or City:

Trip Planner

Search our weather history database for the weather conditions in past years. The results will help you decide how hot, cold, wet, or windy it might be!

Date:

Astronomy

Feb. 04, 2014 Rise Set
Actual Time 6:54 AM CST 5:25 PM CST
Civil Twilight 6:27 AM CST 5:52 PM CST
Nautical Twilight 5:57 AM CST 6:23 PM CST
Astronomical Twilight 5:26 AM CST 6:53 PM CST
Moon 9:43 AM CST (2/4) 11:07 PM CST (2/4)
Length of Visible Light 11h 24m
Length of Day
10h 30m
Waxing Crescent, 29% of the Moon is Illuminated
Feb 4
Waxing Crescent
Feb 6
First Quarter
Feb 14
Full
Feb 22
Last Quarter
Mar 1
New

Hourly Weather History & Observations

Time (CST) Temp. Windchill Dew Point Humidity Pressure Visibility Wind Dir Wind Speed Gust Speed Precip Events Conditions
12:15 AM 23.0 °F - 21.2 °F 93% 30.24 in 9.0 mi Calm Calm - N/A   Overcast
12:35 AM 23.0 °F - 21.2 °F 93% 30.25 in 8.0 mi Calm Calm - N/A   Overcast
12:55 AM 23.0 °F - 21.2 °F 93% 30.25 in 7.0 mi Calm Calm - N/A   Overcast
1:15 AM 24.8 °F - 23.0 °F 93% 30.23 in 5.0 mi Calm Calm - N/A   Overcast
1:35 AM 24.8 °F 20.5 °F 23.0 °F 93% 30.23 in 4.0 mi ENE 3.5 mph - N/A   Overcast
1:55 AM 24.8 °F 20.5 °F 24.8 °F 100% 30.22 in 3.0 mi East 3.5 mph - N/A   Overcast
2:15 AM 24.8 °F - 24.8 °F 100% 30.21 in 4.0 mi Calm Calm - N/A   Overcast
2:35 AM 24.8 °F 19.1 °F 24.8 °F 100% 30.20 in 4.0 mi East 4.6 mph - N/A   Overcast
2:55 AM 24.8 °F - 24.8 °F 100% 30.22 in 4.0 mi Calm Calm - N/A   Overcast
3:15 AM 24.8 °F - 24.8 °F 100% 30.23 in 4.0 mi Calm Calm - N/A   Overcast
3:35 AM 24.8 °F - 24.8 °F 100% 30.25 in 4.0 mi Calm Calm - N/A   Overcast
3:55 AM 24.8 °F - 24.8 °F 100% 30.24 in 5.0 mi Calm Calm - N/A   Overcast
4:15 AM 26.6 °F - 24.8 °F 93% 30.21 in 5.0 mi Calm Calm - N/A   Overcast
4:35 AM 26.6 °F - 24.8 °F 93% 30.20 in 5.0 mi Calm Calm - N/A   Overcast
4:55 AM 26.6 °F 22.6 °F 24.8 °F 93% 30.19 in 5.0 mi East 3.5 mph - N/A   Overcast
5:15 AM 26.6 °F - 24.8 °F 93% 30.20 in 5.0 mi Calm Calm - N/A   Overcast
5:35 AM 26.6 °F 22.6 °F 24.8 °F 93% 30.19 in 5.0 mi East 3.5 mph - N/A   Overcast
5:55 AM 26.6 °F 22.6 °F 26.6 °F 100% 30.19 in 5.0 mi ENE 3.5 mph - N/A   Overcast
6:15 AM 26.6 °F 22.6 °F 26.6 °F 100% 30.16 in 4.0 mi ENE 3.5 mph - N/A   Overcast
6:35 AM 26.6 °F - 26.6 °F 100% 30.17 in 4.0 mi Calm Calm - N/A   Overcast
6:55 AM 26.6 °F - 26.6 °F 100% 30.20 in 4.0 mi Calm Calm - N/A   Overcast
7:15 AM 26.6 °F - 26.6 °F 100% 30.19 in 4.0 mi Calm Calm - N/A   Overcast
7:35 AM 26.6 °F - 26.6 °F 100% 30.17 in 4.0 mi Calm Calm - N/A   Overcast
7:55 AM 26.6 °F - 26.6 °F 100% 30.17 in 2.5 mi Calm Calm - N/A   Overcast
8:15 AM 26.6 °F - 26.6 °F 100% 30.15 in 3.0 mi Calm Calm - N/A   Overcast
8:35 AM 26.6 °F 21.2 °F 26.6 °F 100% 30.11 in 2.5 mi ENE 4.6 mph - N/A   Overcast
8:55 AM 28.4 °F 24.6 °F 26.6 °F 93% 30.11 in 2.5 mi ENE 3.5 mph - N/A   Overcast
9:15 AM 28.4 °F - 26.6 °F 93% 30.11 in 2.5 mi Calm Calm - N/A   Overcast
9:35 AM 28.4 °F 23.3 °F 28.4 °F 100% 30.13 in 3.0 mi NNE 4.6 mph - N/A   Overcast
9:55 AM 28.4 °F 24.6 °F 28.4 °F 100% 30.13 in 2.5 mi NE 3.5 mph - N/A   Overcast
10:15 AM 28.4 °F - 28.4 °F 100% 30.13 in 3.0 mi Calm Calm - N/A   Overcast
10:35 AM 28.4 °F - 28.4 °F 100% 30.16 in 3.0 mi Calm Calm - N/A   Overcast
10:55 AM 28.4 °F - 28.4 °F 100% 30.19 in 2.0 mi Calm Calm - N/A   Overcast
11:15 AM 28.4 °F 22.2 °F 28.4 °F 100% 30.11 in 1.5 mi NNE 5.8 mph - N/A   Overcast
11:35 AM 28.4 °F 22.2 °F 28.4 °F 100% 30.09 in 1.5 mi NNE 5.8 mph - N/A   Overcast
11:55 AM 28.4 °F 23.3 °F 28.4 °F 100% 30.09 in 1.5 mi NNE 4.6 mph - N/A   Overcast
12:15 PM 28.4 °F 22.2 °F 28.4 °F 100% 30.03 in 1.5 mi NNE 5.8 mph - N/A   Overcast
12:35 PM 28.4 °F 23.3 °F 28.4 °F 100% 30.00 in 2.0 mi ENE 4.6 mph - N/A   Overcast
12:55 PM 28.4 °F - 28.4 °F 100% 30.00 in 2.5 mi Calm Calm - N/A   Overcast
1:15 PM 28.4 °F 22.2 °F 28.4 °F 100% 29.92 in 1.5 mi ENE 5.8 mph - N/A   Overcast
1:35 PM 28.4 °F - 28.4 °F 100% 29.92 in 4.0 mi Calm Calm - N/A   Overcast
1:55 PM 30.2 °F 26.7 °F 28.4 °F 93% 29.93 in 1.8 mi NNE 3.5 mph 17.3 mph N/A   Overcast
2:15 PM 30.2 °F 25.4 °F 28.4 °F 93% 29.89 in 2.0 mi ENE 4.6 mph - N/A   Overcast
2:35 PM 30.2 °F 26.7 °F 28.4 °F 93% 29.89 in 2.0 mi ENE 3.5 mph - N/A   Overcast
2:55 PM 30.2 °F 26.7 °F 28.4 °F 93% 29.85 in 2.5 mi ENE 3.5 mph - N/A   Overcast
3:15 PM 30.2 °F 26.7 °F 28.4 °F 93% 29.89 in 2.0 mi ENE 3.5 mph 48.3 mph N/A   Overcast
3:35 PM 30.2 °F - 30.2 °F 100% 29.90 in 1.5 mi Calm Calm - N/A   Overcast
3:55 PM 30.2 °F 23.4 °F 28.4 °F 93% 29.87 in 2.5 mi NE 6.9 mph 84.0 mph N/A   Overcast
4:15 PM 30.2 °F - 28.4 °F 93% 29.90 in 2.5 mi Calm Calm - N/A   Overcast
4:35 PM 30.2 °F - 28.4 °F 93% 29.86 in 2.5 mi Calm Calm - N/A   Overcast
4:55 PM 30.2 °F - 28.4 °F 93% 29.87 in 7.0 mi Calm Calm - N/A   Overcast
5:15 PM 30.2 °F 26.7 °F 28.4 °F 93% 29.87 in 3.0 mi NNE 3.5 mph 15.0 mph N/A   Overcast
5:35 PM 30.2 °F 26.7 °F 28.4 °F 93% 29.86 in 4.0 mi NNE 3.5 mph - N/A   Overcast
6:15 PM 30.2 °F 26.7 °F 28.4 °F 93% 29.86 in 5.0 mi ENE 3.5 mph - N/A   Overcast
6:35 PM 30.2 °F - 30.2 °F 100% 29.86 in 4.0 mi Calm Calm - N/A   Overcast
6:55 PM 30.2 °F 26.7 °F 30.2 °F 100% 29.84 in 4.0 mi NE 3.5 mph - N/A   Overcast
7:15 PM 30.2 °F - 30.2 °F 100% 29.84 in 7.0 mi Calm Calm - N/A   Overcast
7:35 PM 30.2 °F - 28.4 °F 93% 29.80 in 7.0 mi Calm Calm - N/A   Overcast
7:55 PM 30.2 °F - 30.2 °F 100% 29.84 in 10.0 mi Calm Calm - N/A   Overcast
8:15 PM 30.2 °F - 28.4 °F 93% 29.82 in 10.0 mi Calm Calm - N/A   Overcast
8:35 PM 28.4 °F - 28.4 °F 100% 29.84 in 10.0 mi Calm Calm - N/A   Overcast
8:55 PM 28.4 °F - 28.4 °F 100% 29.84 in 10.0 mi Calm Calm - N/A   Overcast
9:15 PM 30.2 °F - 28.4 °F 93% 29.85 in 10.0 mi Calm Calm - N/A   Overcast
9:35 PM 28.4 °F - 28.4 °F 100% 29.87 in 8.0 mi Calm Calm - N/A   Overcast
9:55 PM 28.4 °F - 28.4 °F 100% 29.86 in 6.0 mi Calm Calm - N/A   Overcast
10:15 PM 28.4 °F - 28.4 °F 100% 29.86 in 4.0 mi Calm Calm - N/A   Overcast
10:35 PM 28.4 °F - 28.4 °F 100% 29.86 in 4.0 mi Calm Calm - N/A   Overcast
10:55 PM 28.4 °F - 28.4 °F 100% 29.86 in 2.5 mi Calm Calm - N/A   Overcast
11:15 PM 28.4 °F - 28.4 °F 100% 29.87 in 2.5 mi Calm Calm - N/A   Overcast
11:35 PM 28.4 °F 24.6 °F 28.4 °F 100% 29.87 in 2.5 mi WNW 3.5 mph - N/A   Overcast
11:55 PM 28.4 °F - 28.4 °F 100% 29.87 in 2.0 mi Calm Calm - N/A   Overcast